,,,PA_Meas_PMT16A,,PR_Meas_QMR101_102,,RH_Meas_QMH101,,SR_Meas_QMS101,,TA_Meas_QMH101,,GenWind,,GenWind,
date,time,status,PA,status,PR,status,RH,status,SR,status,TA,status,DirAvg,status,SpdAvg,
2009-09-22, 00:00:05,VALID,1004.12,VALID,0,VALID,84.589,VALID,0,VALID,25.5532,VALID,28,VALID,0.801562,
2009-09-22, 00:01:05,VALID,1004.1,VALID,0,VALID,84.7492,VALID,0,VALID,25.6136,VALID,30,VALID,0.835938,
2009-09-22, 00:02:05,VALID,1004.06,VALID,0,VALID,84.4822,VALID,0,VALID,25.5921,VALID,24,VALID,0.541406,
2009-09-22, 00:03:05,VALID,1004.07,VALID,0,VALID,84.1008,VALID,0,VALID,25.6116,VALID,36,VALID,1.70938,
2009-09-22, 00:04:05,VALID,1004.03,VALID,0,VALID,84.3678,VALID,0,VALID,25.67,VALID,36,VALID,0.362109,
2009-09-22, 00:05:05,VALID,1004.03,VALID,0,VALID,84.3525,VALID,0,VALID,25.6116,VALID,32,VALID,0.563281,
2009-09-22, 00:06:05,VALID,1004.02,VALID,0,VALID,84.6348,VALID,0,VALID,25.5921,VALID,25,VALID,0.566406,
2009-09-22, 00:07:05,VALID,1003.99,VALID,0,VALID,84.6501,VALID,0,VALID,25.5337,VALID,29,VALID,1.10508,
2009-09-22, 00:08:05,VALID,1004.01,VALID,0,VALID,84.5738,VALID,0,VALID,25.5532,VALID,54,VALID,0.754297,
2009-09-22, 00:09:05,VALID,1003.98,VALID,0,VALID,84.2457,VALID,0,VALID,25.5337,VALID,28,VALID,0.947266,
2009-09-22, 00:10:05,VALID,1003.97,VALID,0,VALID,84.4899,VALID,0,VALID,25.5532,VALID,21,VALID,0.807031,
2009-09-22, 00:11:05,VALID,1003.94,VALID,0,VALID,84.4517,VALID,0,VALID,25.5337,VALID,61,VALID,0.453516,
2009-09-22, 00:12:05,VALID,1003.95,VALID,0,VALID,84.8255,VALID,0,VALID,25.5123,VALID,42,VALID,0,
2009-09-22, 00:13:05,VALID,1003.91,VALID,0,VALID,85.0239,VALID,0,VALID,25.4753,VALID,42,VALID,0.51875,
2009-09-22, 00:14:05,VALID,1003.89,VALID,0,VALID,84.4746,VALID,0,VALID,25.4558,VALID,51,VALID,1.07461,
2009-09-22, 00:15:05,VALID,1003.88,VALID,0,VALID,84.1466,VALID,0,VALID,25.4558,VALID,31,VALID,1.16055,
2009-09-22, 00:16:05,VALID,1003.85,VALID,0,VALID,84.1313,VALID,0,VALID,25.5532,VALID,62,VALID,0.946094,
2009-09-22, 00:17:05,VALID,1003.87,VALID,0,VALID,83.2158,VALID,0,VALID,25.6097,VALID,24,VALID,0.963281,
2009-09-22, 00:18:05,VALID,1003.84,VALID,0,VALID,83.1777,VALID,0,VALID,25.67,VALID,29,VALID,0.733984,
2009-09-22, 00:19:05,VALID,1003.87,VALID,0,VALID,83.6659,VALID,0,VALID,25.6681,VALID,34,VALID,0.613672,
2009-09-22, 00:20:05,VALID,1003.85,VALID,0,VALID,83.8719,VALID,0,VALID,25.633,VALID,32,VALID,0.65625,
2009-09-22, 00:21:05,VALID,1003.86,VALID,0,VALID,83.7346,VALID,0,VALID,25.67,VALID,14,VALID,0.596094,
2009-09-22, 00:22:05,VALID,1003.81,VALID,0,VALID,83.9635,VALID,0,VALID,25.6311,VALID,28,VALID,0.852734,
2009-09-22, 00:23:05,VALID,1003.82,VALID,0,VALID,83.46,VALID,0,VALID,25.5513,VALID,6,VALID,1.13086,
2009-09-22, 00:24:05,VALID,1003.79,VALID,0,VALID,83.6659,VALID,0,VALID,25.6116,VALID,34,VALID,0.55,
2009-09-22, 00:25:05,VALID,1003.77,VALID,0,VALID,83.788,VALID,0,VALID,25.6116,VALID,30,VALID,0.489062,
2009-09-22, 00:26:05,VALID,1003.76,VALID,0,VALID,83.6278,VALID,0,VALID,25.5727,VALID,49,VALID,0.986719,
2009-09-22, 00:27:05,VALID,1003.72,VALID,0,VALID,83.9329,VALID,0,VALID,25.5727,VALID,42,VALID,0.539844,
2009-09-22, 00:28:05,VALID,1003.7,VALID,0,VALID,83.7804,VALID,0,VALID,25.5727,VALID,37,VALID,0.878125,
2009-09-22, 00:29:05,VALID,1003.66,VALID,0,VALID,84.116,VALID,0,VALID,25.5318,VALID,36,VALID,0.579687,
2009-09-22, 00:30:05,VALID,1003.65,VALID,0,VALID,84.5204,VALID,0,VALID,25.4948,VALID,35,VALID,0.411719,
2009-09-22, 00:31:05,VALID,1003.62,VALID,0,VALID,83.9787,VALID,0,VALID,25.4753,VALID,31,VALID,1.32656,
2009-09-22, 00:32:05,VALID,1003.59,VALID,0,VALID,83.6888,VALID,0,VALID,25.5337,VALID,26,VALID,0.689062,
2009-09-22, 00:33:05,VALID,1003.58,VALID,0,VALID,83.4142,VALID,0,VALID,25.5532,VALID,45,VALID,1.05156,
2009-09-22, 00:34:05,VALID,1003.59,VALID,0,VALID,83.7346,VALID,0,VALID,25.5921,VALID,23,VALID,0.583203,
2009-09-22, 00:35:05,VALID,1003.55,VALID,0,VALID,83.8414,VALID,0,VALID,25.5921,VALID,23,VALID,0.932031,
2009-09-22, 00:36:05,VALID,1003.54,VALID,0,VALID,82.842,VALID,0,VALID,25.6311,VALID,27,VALID,0.998828,
2009-09-22, 00:37:05,VALID,1003.56,VALID,0,VALID,83.0404,VALID,0,VALID,25.67,VALID,26,VALID,0.766016,
2009-09-22, 00:38:05,VALID,1003.54,VALID,0,VALID,83.0785,VALID,0,VALID,25.67,VALID,30,VALID,1.05117,
2009-09-22, 00:39:05,VALID,1003.52,VALID,0,VALID,82.7276,VALID,0,VALID,25.67,VALID,30,VALID,0.844141,
2009-09-22, 00:40:05,VALID,1003.48,VALID,0,VALID,83.0404,VALID,0,VALID,25.67,VALID,82,VALID,0.352344,
2009-09-22, 00:41:05,VALID,1003.48,VALID,0,VALID,83.0175,VALID,0,VALID,25.6506,VALID,33,VALID,0.749219,
2009-09-22, 00:42:05,VALID,1003.47,VALID,0,VALID,83.3913,VALID,0,VALID,25.6116,VALID,8,VALID,0.480859,
2009-09-22, 00:43:05,VALID,1003.4,VALID,0,VALID,83.2692,VALID,0,VALID,25.6116,VALID,24,VALID,0.444141,
2009-09-22, 00:44:05,VALID,1003.43,VALID,0,VALID,83.6583,VALID,0,VALID,25.5921,VALID,11,VALID,0.816406,
2009-09-22, 00:45:05,VALID,1003.39,VALID,0,VALID,84.1389,VALID,0,VALID,25.5532,VALID,5,VALID,0.423438,
2009-09-22, 00:46:05,VALID,1003.37,VALID,0,VALID,83.9635,VALID,0,VALID,25.5532,VALID,25,VALID,0.604688,
2009-09-22, 00:47:05,VALID,1003.38,VALID,0,VALID,83.8719,VALID,0,VALID,25.5727,VALID,31,VALID,0.871875,
2009-09-22, 00:48:05,VALID,1003.38,VALID,0,VALID,84.1313,VALID,0,VALID,25.5532,VALID,7,VALID,0.625781,
2009-09-22, 00:49:04,VALID,1003.38,VALID,0,VALID,84.4212,VALID,0,VALID,25.4948,VALID,14,VALID,0.595312,
2009-09-22, 00:50:04,VALID,1003.35,VALID,0,VALID,84.3296,VALID,0,VALID,25.4753,VALID,25,VALID,0.830859,
2009-09-22, 00:51:04,VALID,1003.35,VALID,0,VALID,85.0239,VALID,0,VALID,25.4363,VALID,25,VALID,0.598828,
2009-09-22, 00:52:04,VALID,1003.34,VALID,0,VALID,85.4206,VALID,0,VALID,25.3779,VALID,25,VALID,0.302734,
2009-09-22, 00:53:04,VALID,1003.31,VALID,0,VALID,85.7639,VALID,0,VALID,25.3409,VALID,25,VALID,0,
2009-09-22, 00:54:04,VALID,1003.31,VALID,0,VALID,85.7791,VALID,0,VALID,25.2806,VALID,25,VALID,0,
2009-09-22, 00:55:04,VALID,1003.32,VALID,0,VALID,86.0004,VALID,0,VALID,25.263,VALID,25,VALID,0,
2009-09-22, 00:56:04,VALID,1003.33,VALID,0,VALID,86.3437,VALID,0,VALID,25.2027,VALID,42,VALID,0.639453,
2009-09-22, 00:57:04,VALID,1003.29,VALID,0,VALID,86.0309,VALID,0,VALID,25.2027,VALID,20,VALID,0.875781,
2009-09-22, 00:58:04,VALID,1003.29,VALID,0,VALID,86.1224,VALID,0,VALID,25.2027,VALID,23,VALID,0.853516,
2009-09-22, 00:59:04,VALID,1003.28,VALID,0,VALID,85.8325,VALID,0,VALID,25.2806,VALID,26,VALID,0.614453,
2009-09-22, 01:00:04,VALID,1003.28,VALID,0,VALID,85.4587,VALID,0,VALID,25.3195,VALID,29,VALID,0.700781,
2009-09-22, 01:01:04,VALID,1003.25,VALID,0,VALID,85.1307,VALID,0,VALID,25.339,VALID,19,VALID,0.557422,
2009-09-22, 01:02:04,VALID,1003.26,VALID,0,VALID,84.9781,VALID,0,VALID,25.3584,VALID,7,VALID,0.782812,
2009-09-22, 01:03:04,VALID,1003.23,VALID,0,VALID,84.7492,VALID,0,VALID,25.4363,VALID,30,VALID,0.702344,
2009-09-22, 01:04:04,VALID,1003.22,VALID,0,VALID,84.6272,VALID,0,VALID,25.4558,VALID,25,VALID,0.66875,
2009-09-22, 01:05:04,VALID,1003.23,VALID,0,VALID,84.7416,VALID,0,VALID,25.4363,VALID,25,VALID,0.557813,
2009-09-22, 01:06:04,VALID,1003.21,VALID,0,VALID,85.1154,VALID,0,VALID,25.3974,VALID,25,VALID,0.582422,
2009-09-22, 01:07:04,VALID,1003.18,VALID,0,VALID,84.4136,VALID,0,VALID,25.3779,VALID,21,VALID,0.482422,
2009-09-22, 01:08:04,VALID,1003.17,VALID,0,VALID,85.001,VALID,0,VALID,25.3955,VALID,21,VALID,0.557422,
2009-09-22, 01:09:04,VALID,1003.15,VALID,0,VALID,84.5433,VALID,0,VALID,25.4558,VALID,22,VALID,0.498828,
2009-09-22, 01:10:04,VALID,1003.18,VALID,0,VALID,84.261,VALID,0,VALID,25.4558,VALID,22,VALID,0.502344,
2009-09-22, 01:11:04,VALID,1003.16,VALID,0,VALID,84.2991,VALID,0,VALID,25.5142,VALID,345,VALID,0.341016,
2009-09-22, 01:12:04,VALID,1003.13,VALID,0,VALID,84.2152,VALID,0,VALID,25.5337,VALID,358,VALID,0.556641,
2009-09-22, 01:13:04,VALID,1003.17,VALID,0,VALID,83.5515,VALID,0,VALID,25.5707,VALID,22,VALID,0.688672,
2009-09-22, 01:14:04,VALID,1003.18,VALID,0,VALID,83.788,VALID,0,VALID,25.6311,VALID,23,VALID,0.740625,
2009-09-22, 01:15:04,VALID,1003.16,VALID,0,VALID,83.5744,VALID,0,VALID,25.6506,VALID,360,VALID,0.576563,
2009-09-22, 01:16:04,VALID,1003.15,VALID,0,VALID,83.5973,VALID,0,VALID,25.67,VALID,42,VALID,0.321875,
2009-09-22, 01:17:04,VALID,1003.15,VALID,0,VALID,83.4065,VALID,0,VALID,25.6895,VALID,35,VALID,0.46875,
2009-09-22, 01:18:04,VALID,1003.14,VALID,0,VALID,83.4905,VALID,0,VALID,25.7109,VALID,35,VALID,0.488672,
2009-09-22, 01:19:04,VALID,1003.12,VALID,0,VALID,83.7498,VALID,0,VALID,25.6876,VALID,35,VALID,0.375391,
2009-09-22, 01:20:04,VALID,1003.13,VALID,0,VALID,83.4218,VALID,0,VALID,25.67,VALID,35,VALID,0.767969,
2009-09-22, 01:21:04,VALID,1003.1,VALID,0,VALID,83.5362,VALID,0,VALID,25.748,VALID,29,VALID,0.151172,
2009-09-22, 01:22:04,VALID,1003.11,VALID,0,VALID,83.8643,VALID,0,VALID,25.7285,VALID,26,VALID,0.389844,
2009-09-22, 01:23:04,VALID,1003.09,VALID,0,VALID,84.0092,VALID,0,VALID,25.7285,VALID,20,VALID,0.432031,
2009-09-22, 01:24:04,VALID,1003.07,VALID,0,VALID,83.8033,VALID,0,VALID,25.709,VALID,23,VALID,0.744141,
2009-09-22, 01:25:04,VALID,1003.08,VALID,0,VALID,83.3684,VALID,0,VALID,25.8064,VALID,26,VALID,0.496094,
2009-09-22, 01:26:04,VALID,1003.07,VALID,0,VALID,82.7505,VALID,0,VALID,25.8453,VALID,59,VALID,0.976563,
2009-09-22, 01:27:04,VALID,1003.11,VALID,0,VALID,82.9564,VALID,0,VALID,25.9213,VALID,25,VALID,0.776953,
2009-09-22, 01:28:04,VALID,1003.07,VALID,0,VALID,82.6818,VALID,0,VALID,25.9622,VALID,31,VALID,0.796875,
2009-09-22, 01:29:04,VALID,1003.1,VALID,0,VALID,82.3614,VALID,0,VALID,26.0206,VALID,18,VALID,0.701172,
2009-09-22, 01:30:04,VALID,1003.07,VALID,0,VALID,82.514,VALID,0,VALID,26.0206,VALID,28,VALID,0.600781,
2009-09-22, 01:31:04,VALID,1003.07,VALID,0,VALID,82.7505,VALID,0,VALID,26.0012,VALID,5,VALID,0.725781,
2009-09-22, 01:32:04,VALID,1003.08,VALID,0,VALID,82.9336,VALID,0,VALID,25.9427,VALID,3,VALID,0.628125,
2009-09-22, 01:33:04,VALID,1003.05,VALID,0,VALID,83.2082,VALID,0,VALID,25.9018,VALID,44,VALID,0.907812,
2009-09-22, 01:34:04,VALID,1003.03,VALID,0,VALID,83.5744,VALID,0,VALID,25.9038,VALID,33,VALID,0.515234,
2009-09-22, 01:35:04,VALID,1003.03,VALID,0,VALID,83.5896,VALID,0,VALID,25.8648,VALID,29,VALID,0.612891,
2009-09-22, 01:36:04,VALID,1003.04,VALID,0,VALID,83.7422,VALID,0,VALID,25.8259,VALID,358,VALID,0.739844,
2009-09-22, 01:37:04,VALID,1003.02,VALID,0,VALID,83.6812,VALID,0,VALID,25.8044,VALID,31,VALID,1.12461,
2009-09-22, 01:38:04,VALID,1003,VALID,0,VALID,83.5286,VALID,0,VALID,25.8648,VALID,32,VALID,0.586328,
2009-09-22, 01:39:04,VALID,1003,VALID,0,VALID,83.643,VALID,0,VALID,25.9038,VALID,29,VALID,0.834766,
2009-09-22, 01:40:04,VALID,1002.98,VALID,0,VALID,83.6049,VALID,0,VALID,25.9018,VALID,28,VALID,0.682813,
2009-09-22, 01:41:04,VALID,1003,VALID,0,VALID,83.5286,VALID,0,VALID,25.9427,VALID,21,VALID,0.762109,
2009-09-22, 01:42:04,VALID,1002.98,VALID,0,VALID,83.0861,VALID,0,VALID,25.9797,VALID,359,VALID,1.53359,
2009-09-22, 01:43:04,VALID,1002.99,VALID,0,VALID,83.1548,VALID,0,VALID,26.0596,VALID,17,VALID,0.93125,
2009-09-22, 01:44:04,VALID,1002.99,VALID,0,VALID,83.4676,VALID,0,VALID,26.0616,VALID,18,VALID,0.152734,
2009-09-22, 01:45:04,VALID,1003.01,VALID,0,VALID,83.0709,VALID,0,VALID,26.0401,VALID,18,VALID,1.88984,
2009-09-22, 01:46:04,VALID,1002.98,VALID,0,VALID,83.4218,VALID,0,VALID,26.0596,VALID,70,VALID,0.166406,
2009-09-22, 01:47:04,VALID,1003.01,VALID,0,VALID,83.4371,VALID,0,VALID,26.0206,VALID,19,VALID,0.469531,
2009-09-22, 01:48:04,VALID,1002.99,VALID,0,VALID,83.7651,VALID,0,VALID,25.9817,VALID,9,VALID,0.436719,
2009-09-22, 01:49:04,VALID,1002.99,VALID,0,VALID,83.9711,VALID,0,VALID,25.9622,VALID,22,VALID,0.675391,
2009-09-22, 01:50:04,VALID,1002.99,VALID,0,VALID,84.1542,VALID,0,VALID,25.9232,VALID,22,VALID,0.577734,
2009-09-22, 01:51:04,VALID,1002.99,VALID,0,VALID,84.0931,VALID,0,VALID,25.9038,VALID,19,VALID,0.862891,
2009-09-22, 01:52:04,VALID,1002.98,VALID,0,VALID,84.589,VALID,0,VALID,25.9232,VALID,20,VALID,0.603906,
2009-09-22, 01:53:04,VALID,1002.96,VALID,0,VALID,84.4517,VALID,0,VALID,25.8629,VALID,35,VALID,0.663672,
2009-09-22, 01:54:04,VALID,1002.95,VALID,0,VALID,84.0703,VALID,0,VALID,25.9232,VALID,31,VALID,0.960938,
2009-09-22, 01:55:04,VALID,1002.95,VALID,0,VALID,84.055,VALID,0,VALID,25.9602,VALID,19,VALID,0.679688,
2009-09-22, 01:56:04,VALID,1002.92,VALID,0,VALID,84.2915,VALID,0,VALID,25.9602,VALID,20,VALID,0.244531,
2009-09-22, 01:57:04,VALID,1002.9,VALID,0,VALID,84.3678,VALID,0,VALID,25.9408,VALID,24,VALID,0.399609,
2009-09-22, 01:58:04,VALID,1002.87,VALID,0,VALID,84.6653,VALID,0,VALID,25.9232,VALID,24,VALID,0.369141,
2009-09-22, 01:59:04,VALID,1002.88,VALID,0,VALID,84.9247,VALID,0,VALID,25.8648,VALID,24,VALID,0.412109,
2009-09-22, 02:00:04,VALID,1002.87,VALID,0,VALID,85.1078,VALID,0,VALID,25.8259,VALID,28,VALID,0.712109,
2009-09-22, 02:01:04,VALID,1002.86,VALID,0,VALID,85.2833,VALID,0,VALID,25.7674,VALID,28,VALID,0.633203,
2009-09-22, 02:02:04,VALID,1002.84,VALID,0,VALID,85.5426,VALID,0,VALID,25.7285,VALID,28,VALID,0.455469,
2009-09-22, 02:03:04,VALID,1002.83,VALID,0,VALID,85.7639,VALID,0,VALID,25.6895,VALID,28,VALID,0.00703125,
2009-09-22, 02:04:04,VALID,1002.84,VALID,0,VALID,85.9927,VALID,0,VALID,25.6895,VALID,28,VALID,0.676172,
2009-09-22, 02:05:04,VALID,1002.84,VALID,0,VALID,85.6494,VALID,0,VALID,25.709,VALID,2,VALID,1.01289,
2009-09-22, 02:06:04,VALID,1002.82,VALID,0,VALID,85.5655,VALID,0,VALID,25.748,VALID,17,VALID,0.234766,
2009-09-22, 02:07:04,VALID,1002.8,VALID,0,VALID,85.0925,VALID,0,VALID,25.748,VALID,14,VALID,0.916016,
2009-09-22, 02:08:04,VALID,1002.8,VALID,0,VALID,85.207,VALID,0,VALID,25.8064,VALID,357,VALID,0.00195313,
2009-09-22, 02:09:04,VALID,1002.83,VALID,0,VALID,85.2222,VALID,0,VALID,25.7869,VALID,357,VALID,0,
2009-09-22, 02:10:04,VALID,1002.83,VALID,0,VALID,85.7028,VALID,0,VALID,25.7674,VALID,357,VALID,0.00351562,
2009-09-22, 02:11:04,VALID,1002.84,VALID,0,VALID,85.8249,VALID,0,VALID,25.6895,VALID,347,VALID,0.352344,
2009-09-22, 02:12:04,VALID,1002.84,VALID,0,VALID,86.2369,VALID,0,VALID,25.5902,VALID,347,VALID,0.122266,
2009-09-22, 02:13:04,VALID,1002.83,VALID,0,VALID,86.3971,VALID,0,VALID,25.4539,VALID,242,VALID,0.33125,
2009-09-22, 02:14:04,VALID,1002.86,VALID,0,VALID,86.8167,VALID,0,VALID,25.3974,VALID,242,VALID,0.217187,
2009-09-22, 02:15:04,VALID,1002.84,VALID,0,VALID,87.3736,VALID,0,VALID,25.3195,VALID,242,VALID,0.0878906,
2009-09-22, 02:16:04,VALID,1002.86,VALID,0,VALID,87.7169,VALID,0,VALID,25.2202,VALID,242,VALID,0,
2009-09-22, 02:17:04,VALID,1002.86,VALID,0,VALID,87.9457,VALID,0,VALID,25.1034,VALID,242,VALID,0,
2009-09-22, 02:18:04,VALID,1002.87,VALID,0,VALID,88.1136,VALID,0,VALID,25.0663,VALID,242,VALID,0,
2009-09-22, 02:19:04,VALID,1002.86,VALID,0,VALID,88.4035,VALID,0,VALID,25.0274,VALID,242,VALID,0,
2009-09-22, 02:20:04,VALID,1002.85,VALID,0,VALID,88.6476,VALID,0,VALID,24.9495,VALID,242,VALID,0,
2009-09-22, 02:21:04,VALID,1002.87,VALID,0,VALID,89.0061,VALID,0,VALID,24.8911,VALID,242,VALID,0,
2009-09-22, 02:22:04,VALID,1002.88,VALID,0,VALID,89.441,VALID,0,VALID,24.8308,VALID,242,VALID,0,
2009-09-22, 02:23:04,VALID,1002.9,VALID,0,VALID,89.7156,VALID,0,VALID,24.7529,VALID,242,VALID,0,
2009-09-22, 02:24:04,VALID,1002.93,VALID,0,VALID,90.0284,VALID,0,VALID,24.7353,VALID,242,VALID,0,
2009-09-22, 02:25:04,VALID,1002.88,VALID,0,VALID,90.3793,VALID,0,VALID,24.6769,VALID,242,VALID,0,
2009-09-22, 02:26:04,VALID,1002.92,VALID,0,VALID,90.5624,VALID,0,VALID,24.638,VALID,242,VALID,0,
2009-09-22, 02:27:04,VALID,1002.91,VALID,0,VALID,90.7913,VALID,0,VALID,24.5777,VALID,242,VALID,0,
2009-09-22, 02:28:04,VALID,1002.93,VALID,0,VALID,91.1193,VALID,0,VALID,24.5601,VALID,242,VALID,0,
2009-09-22, 02:29:04,VALID,1002.94,VALID,0,VALID,91.3406,VALID,0,VALID,24.4998,VALID,242,VALID,0,
2009-09-22, 02:30:04,VALID,1002.95,VALID,0,VALID,91.5847,VALID,0,VALID,24.4822,VALID,242,VALID,0,
2009-09-22, 02:31:04,VALID,1002.96,VALID,0,VALID,91.8212,VALID,0,VALID,24.4433,VALID,242,VALID,0,
2009-09-22, 02:32:04,VALID,1002.94,VALID,0,VALID,92.0501,VALID,0,VALID,24.422,VALID,242,VALID,0,
2009-09-22, 02:33:04,VALID,1002.94,VALID,0,VALID,92.1721,VALID,0,VALID,24.4043,VALID,242,VALID,0,
2009-09-22, 02:34:04,VALID,1002.93,VALID,0,VALID,92.2179,VALID,0,VALID,24.3849,VALID,242,VALID,0,
2009-09-22, 02:35:04,VALID,1002.93,VALID,0,VALID,92.3934,VALID,0,VALID,24.3636,VALID,242,VALID,0,
2009-09-22, 02:36:04,VALID,1002.97,VALID,0,VALID,92.4773,VALID,0,VALID,24.3849,VALID,242,VALID,0,
2009-09-22, 02:37:04,VALID,1002.94,VALID,0,VALID,92.5841,VALID,0,VALID,24.3441,VALID,242,VALID,0,
2009-09-22, 02:38:04,VALID,1002.97,VALID,0,VALID,92.5841,VALID,0,VALID,24.3246,VALID,242,VALID,0,
2009-09-22, 02:39:04,VALID,1002.95,VALID,0,VALID,92.6528,VALID,0,VALID,24.3246,VALID,242,VALID,0,
2009-09-22, 02:40:04,VALID,1002.93,VALID,0,VALID,92.6985,VALID,0,VALID,24.3052,VALID,242,VALID,0,
2009-09-22, 02:41:04,VALID,1002.95,VALID,0,VALID,92.7214,VALID,0,VALID,24.3052,VALID,242,VALID,0,
2009-09-22, 02:42:04,VALID,1002.95,VALID,0,VALID,92.8358,VALID,0,VALID,24.3052,VALID,242,VALID,0,
2009-09-22, 02:43:04,VALID,1002.96,VALID,0,VALID,92.9198,VALID,0,VALID,24.2857,VALID,242,VALID,0,
2009-09-22, 02:44:04,VALID,1002.98,VALID,0,VALID,93.0113,VALID,0,VALID,24.2857,VALID,242,VALID,0,
2009-09-22, 02:45:04,VALID,1002.96,VALID,0,VALID,93.0876,VALID,0,VALID,24.2875,VALID,242,VALID,0,
2009-09-22, 02:46:04,VALID,1002.96,VALID,0,VALID,93.1639,VALID,0.100563,VALID,24.2662,VALID,242,VALID,0,
2009-09-22, 02:47:04,VALID,1002.97,VALID,0,VALID,93.2173,VALID,0,VALID,24.2468,VALID,242,VALID,0,
2009-09-22, 02:48:04,VALID,1002.99,VALID,0,VALID,93.2859,VALID,0,VALID,24.2273,VALID,242,VALID,0,
2009-09-22, 02:49:04,VALID,1003,VALID,0,VALID,93.3317,VALID,0,VALID,24.2273,VALID,242,VALID,0,
2009-09-22, 02:50:04,VALID,1003.01,VALID,0,VALID,93.4004,VALID,0,VALID,24.2273,VALID,242,VALID,0,
2009-09-22, 02:51:04,VALID,1003,VALID,0,VALID,93.4385,VALID,0,VALID,24.2273,VALID,242,VALID,0,
2009-09-22, 02:52:04,VALID,1003.02,VALID,0,VALID,93.4919,VALID,0,VALID,24.2078,VALID,242,VALID,0,
2009-09-22, 02:53:04,VALID,1003.08,VALID,0,VALID,93.5377,VALID,0,VALID,24.2291,VALID,242,VALID,0,
2009-09-22, 02:54:04,VALID,1003.05,VALID,0,VALID,93.6064,VALID,0,VALID,24.2291,VALID,242,VALID,0,
2009-09-22, 02:55:04,VALID,1003.08,VALID,0,VALID,93.6521,VALID,0,VALID,24.2291,VALID,242,VALID,0,
2009-09-22, 02:56:04,VALID,1003.08,VALID,0,VALID,93.6903,VALID,0,VALID,24.1884,VALID,242,VALID,0,
2009-09-22, 02:57:04,VALID,1003.12,VALID,0,VALID,93.7132,VALID,0,VALID,24.1884,VALID,242,VALID,0,
2009-09-22, 02:58:04,VALID,1003.12,VALID,0,VALID,93.7361,VALID,0,VALID,24.2097,VALID,242,VALID,0,
2009-09-22, 02:59:04,VALID,1003.16,VALID,0,VALID,93.7895,VALID,0,VALID,24.1884,VALID,242,VALID,0,
2009-09-22, 03:00:04,VALID,1003.16,VALID,0,VALID,93.8276,VALID,0,VALID,24.1689,VALID,242,VALID,0,
2009-09-22, 03:01:04,VALID,1003.18,VALID,0,VALID,93.881,VALID,0,VALID,24.1689,VALID,242,VALID,0,
2009-09-22, 03:02:04,VALID,1003.18,VALID,0,VALID,93.8963,VALID,0,VALID,24.1689,VALID,242,VALID,0,
2009-09-22, 03:03:04,VALID,1003.19,VALID,0,VALID,93.9268,VALID,0,VALID,24.1902,VALID,242,VALID,0,
2009-09-22, 03:04:04,VALID,1003.21,VALID,0,VALID,93.9802,VALID,0,VALID,24.1689,VALID,242,VALID,0,
2009-09-22, 03:05:04,VALID,1003.22,VALID,0,VALID,94.0107,VALID,0,VALID,24.1707,VALID,242,VALID,0,
2009-09-22, 03:06:04,VALID,1003.24,VALID,0,VALID,94.0488,VALID,0,VALID,24.1494,VALID,242,VALID,0,
2009-09-22, 03:07:04,VALID,1003.26,VALID,0,VALID,94.087,VALID,0,VALID,24.1689,VALID,242,VALID,0,
2009-09-22, 03:08:04,VALID,1003.26,VALID,0,VALID,94.1175,VALID,0,VALID,24.1689,VALID,242,VALID,0,
2009-09-22, 03:09:04,VALID,1003.29,VALID,0,VALID,94.1709,VALID,0,VALID,24.1689,VALID,242,VALID,0,
2009-09-22, 03:10:04,VALID,1003.29,VALID,0,VALID,94.2014,VALID,0,VALID,24.1902,VALID,242,VALID,0,
2009-09-22, 03:11:04,VALID,1003.32,VALID,0,VALID,94.2243,VALID,0,VALID,24.1902,VALID,242,VALID,0,
2009-09-22, 03:12:04,VALID,1003.31,VALID,0,VALID,94.2396,VALID,0,VALID,24.1689,VALID,242,VALID,0,
2009-09-22, 03:13:04,VALID,1003.32,VALID,0,VALID,94.2701,VALID,0,VALID,24.2097,VALID,242,VALID,0,
2009-09-22, 03:14:04,VALID,1003.35,VALID,0,VALID,94.2853,VALID,0,VALID,24.2097,VALID,242,VALID,0,
2009-09-22, 03:15:04,VALID,1003.36,VALID,0,VALID,94.2853,VALID,0,VALID,24.1884,VALID,242,VALID,0,
2009-09-22, 03:16:04,VALID,1003.33,VALID,0,VALID,94.2777,VALID,0,VALID,24.2097,VALID,242,VALID,0,
2009-09-22, 03:17:04,VALID,1003.35,VALID,0,VALID,94.2548,VALID,0,VALID,24.1707,VALID,242,VALID,0,
2009-09-22, 03:18:04,VALID,1003.37,VALID,0,VALID,94.2701,VALID,0,VALID,24.1513,VALID,242,VALID,0,
2009-09-22, 03:19:04,VALID,1003.38,VALID,0,VALID,94.2624,VALID,0,VALID,24.1513,VALID,242,VALID,0,
2009-09-22, 03:20:04,VALID,1003.38,VALID,0,VALID,94.3006,VALID,0,VALID,24.1494,VALID,242,VALID,0,
2009-09-22, 03:21:04,VALID,1003.39,VALID,0,VALID,94.3082,VALID,0,VALID,24.1494,VALID,242,VALID,0,
2009-09-22, 03:22:04,VALID,1003.4,VALID,0,VALID,94.354,VALID,0,VALID,24.1513,VALID,242,VALID,0,
2009-09-22, 03:23:04,VALID,1003.41,VALID,0,VALID,94.3692,VALID,0,VALID,24.1513,VALID,242,VALID,0,
2009-09-22, 03:24:04,VALID,1003.4,VALID,0,VALID,94.3769,VALID,0,VALID,24.13,VALID,242,VALID,0,
2009-09-22, 03:25:04,VALID,1003.41,VALID,0,VALID,94.4227,VALID,0,VALID,24.13,VALID,242,VALID,0,
2009-09-22, 03:26:04,VALID,1003.39,VALID,0,VALID,94.4532,VALID,0,VALID,24.1494,VALID,242,VALID,0,
2009-09-22, 03:27:04,VALID,1003.43,VALID,0,VALID,94.4913,VALID,0.100563,VALID,24.1689,VALID,242,VALID,0,
2009-09-22, 03:28:04,VALID,1003.46,VALID,0,VALID,94.5447,VALID,0.100563,VALID,24.1902,VALID,242,VALID,0,
2009-09-22, 03:29:04,VALID,1003.44,VALID,0,VALID,94.5371,VALID,0.100563,VALID,24.1689,VALID,242,VALID,0,
2009-09-22, 03:30:04,VALID,1003.43,VALID,0,VALID,94.5447,VALID,0,VALID,24.1884,VALID,337,VALID,0.448828,
2009-09-22, 03:31:04,VALID,1003.45,VALID,0,VALID,94.56,VALID,0.100563,VALID,24.1902,VALID,337,VALID,0.0316406,
2009-09-22, 03:32:04,VALID,1003.44,VALID,0,VALID,94.5676,VALID,0,VALID,24.1689,VALID,337,VALID,0.2375,
2009-09-22, 03:33:04,VALID,1003.45,VALID,0,VALID,94.5829,VALID,0,VALID,24.1689,VALID,337,VALID,0,
2009-09-22, 03:34:04,VALID,1003.47,VALID,0,VALID,94.6057,VALID,0,VALID,24.1689,VALID,337,VALID,0.0503906,
2009-09-22, 03:35:04,VALID,1003.49,VALID,0,VALID,94.5981,VALID,0,VALID,24.1902,VALID,337,VALID,0.344141,
2009-09-22, 03:36:04,VALID,1003.5,VALID,0,VALID,94.6057,VALID,0,VALID,24.1707,VALID,337,VALID,0.248047,
2009-09-22, 03:37:04,VALID,1003.5,VALID,0,VALID,94.6363,VALID,0.100563,VALID,24.1689,VALID,337,VALID,0.282813,
2009-09-22, 03:38:04,VALID,1003.46,VALID,0,VALID,94.6515,VALID,0,VALID,24.1689,VALID,337,VALID,0.320313,
2009-09-22, 03:39:04,VALID,1003.47,VALID,0,VALID,94.6591,VALID,0,VALID,24.1689,VALID,337,VALID,0.263672,
2009-09-22, 03:40:04,VALID,1003.49,VALID,0,VALID,94.6515,VALID,0,VALID,24.1689,VALID,337,VALID,0.341797,
2009-09-22, 03:41:04,VALID,1003.5,VALID,0,VALID,94.6973,VALID,0,VALID,24.1689,VALID,337,VALID,0.324219,
2009-09-22, 03:42:04,VALID,1003.51,VALID,0,VALID,94.6897,VALID,0,VALID,24.1689,VALID,337,VALID,0.304297,
2009-09-22, 03:43:04,VALID,1003.49,VALID,0,VALID,94.682,VALID,0,VALID,24.1902,VALID,337,VALID,0.298047,
2009-09-22, 03:44:04,VALID,1003.49,VALID,0,VALID,94.6668,VALID,0,VALID,24.1689,VALID,337,VALID,0.250781,
2009-09-22, 03:45:04,VALID,1003.49,VALID,0,VALID,94.7125,VALID,0,VALID,24.1902,VALID,337,VALID,0.171484,
2009-09-22, 03:46:04,VALID,1003.49,VALID,0,VALID,94.7202,VALID,0.100563,VALID,24.1689,VALID,337,VALID,0.402344,
2009-09-22, 03:47:04,VALID,1003.51,VALID,0,VALID,94.7049,VALID,0,VALID,24.1494,VALID,337,VALID,0.24375,
2009-09-22, 03:48:04,VALID,1003.52,VALID,0,VALID,94.7202,VALID,0,VALID,24.13,VALID,337,VALID,0.329297,
2009-09-22, 03:49:04,VALID,1003.5,VALID,0,VALID,94.7278,VALID,0,VALID,24.1494,VALID,337,VALID,0.358984,
2009-09-22, 03:50:04,VALID,1003.49,VALID,0,VALID,94.7354,VALID,0,VALID,24.1494,VALID,337,VALID,0,